Retour au catalogue

Gemini-Pollux

ActifScienceSSO
NORAD 69000·PAYLOAD·🇬🇷 Greece

Lancé May 3, 2026 depuis Vandenberg Space Force Base

Loading…

Prochains Passages (prochaines 24 heures)

TLE

FraisSource: Space-Track

Époque: Sep 14, 2026, 10:29 UTC

1 69000U 26100W   26257.43699000  .00001525  00000-0  15389-3 0  9999
2 69000  97.7197 153.2243 0001228  51.3093 308.8236 14.92517393 20018

Suivez Gemini-Pollux en temps réel avec AllMySat

Download on the App Store